Time,TemperatureF,DewpointF,PressureIn,WindDirection,WindDirectionDegrees,WindSpeedMPH,WindSpeedGustMPH,Humidity,HourlyPrecipIn,Conditions,Clouds,dailyrainin,SoftwareType,DateUTC
2013-04-01 00:04:00,37.0,26.3,30.19,WNW,292,6.0,315.0,65,0.00,,,-99.99,Weather View 32 v70,2013-04-01 06:04:00,
2013-04-01 00:09:00,36.0,25.7,30.19,WNW,292,5.0,315.0,66,0.00,,,-99.99,Weather View 32 v70,2013-04-01 06:09:00,
2013-04-01 00:14:00,35.0,25.5,30.19,NW,315,4.0,315.0,68,0.00,,,-99.99,Weather View 32 v70,2013-04-01 06:14:00,
2013-04-01 00:19:00,34.0,24.9,30.19,NW,315,0.0,315.0,69,0.00,,,-99.99,Weather View 32 v70,2013-04-01 06:19:00,
2013-04-01 00:24:00,34.0,24.5,30.19,NW,315,0.0,315.0,68,0.00,,,-99.99,Weather View 32 v70,2013-04-01 06:24:00,
2013-04-01 00:29:00,33.0,24.3,30.20,NW,315,4.0,315.0,70,0.00,,,-99.99,Weather View 32 v70,2013-04-01 06:29:00,
2013-04-01 00:34:00,34.0,25.6,30.20,NW,315,4.0,315.0,71,0.00,,,-99.99,Weather View 32 v70,2013-04-01 06:34:00,
2013-04-01 00:39:00,35.0,26.9,30.20,NW,315,5.0,315.0,72,0.00,,,-99.99,Weather View 32 v70,2013-04-01 06:39:00,
2013-04-01 00:44:00,35.0,26.5,30.20,NW,315,3.0,315.0,71,0.00,,,-99.99,Weather View 32 v70,2013-04-01 06:44:00,
2013-04-01 00:49:00,34.0,24.9,30.20,NW,315,2.0,315.0,69,0.00,,,-99.99,Weather View 32 v70,2013-04-01 06:49:00,
2013-04-01 00:54:00,33.0,24.3,30.20,NW,315,2.0,315.0,70,0.00,,,-99.99,Weather View 32 v70,2013-04-01 06:54:00,
2013-04-01 00:59:00,32.0,23.7,30.20,NW,315,1.0,315.0,71,0.00,,,-99.99,Weather View 32 v70,2013-04-01 06:59:00,
2013-04-01 01:04:00,2.0,-22.3,76.32,NNE,25,315.0,315.0,30,71.00,,,-99.99,Weather View 32 v70,2013-04-01 07:04:00,
2013-04-01 01:09:00,30.0,22.1,30.20,NW,315,3.0,315.0,72,0.00,,,-99.99,Weather View 32 v70,2013-04-01 07:09:00,
2013-04-01 01:14:00,29.0,21.4,30.20,NW,315,4.0,315.0,73,0.00,,,-99.99,Weather View 32 v70,2013-04-01 07:14:00,
2013-04-01 01:19:00,29.0,22.1,30.22,NW,315,1.0,315.0,75,0.00,,,-99.99,Weather View 32 v70,2013-04-01 07:19:00,
2013-04-01 01:29:00,29.0,23.0,30.21,NW,315,0.0,315.0,78,0.00,,,-99.99,Weather View 32 v70,2013-04-01 07:29:00,
2013-04-01 01:34:00,30.0,24.0,30.21,NW,315,0.0,315.0,78,0.00,,,-99.99,Weather View 32 v70,2013-04-01 07:34:00,
2013-04-01 01:39:00,30.0,24.0,30.22,NW,315,0.0,315.0,78,0.00,,,-99.99,Weather View 32 v70,2013-04-01 07:39:00,
2013-04-01 01:44:00,30.0,24.0,30.22,NW,315,0.0,315.0,78,0.00,,,-99.99,Weather View 32 v70,2013-04-01 07:44:00,
2013-04-01 01:49:00,29.0,22.4,30.22,NW,315,2.0,315.0,76,0.00,,,-99.99,Weather View 32 v70,2013-04-01 07:49:00,
2013-04-01 01:54:00,29.0,23.0,30.22,NW,315,0.0,315.0,78,0.00,,,-99.99,Weather View 32 v70,2013-04-01 07:54:00,
2013-04-01 01:59:00,28.0,22.0,30.22,NW,315,1.0,315.0,78,0.00,,,-99.99,Weather View 32 v70,2013-04-01 07:59:00,
2013-04-01 02:09:00,28.0,22.6,30.22,NW,315,1.0,315.0,80,0.00,,,-99.99,Weather View 32 v70,2013-04-01 08:09:00,
2013-04-01 02:14:00,28.0,22.3,30.22,NW,315,1.0,315.0,79,0.00,,,-99.99,Weather View 32 v70,2013-04-01 08:14:00,
2013-04-01 02:19:00,28.0,22.6,30.22,NW,315,1.0,315.0,80,0.00,,,-99.99,Weather View 32 v70,2013-04-01 08:19:00,
2013-04-01 02:24:00,27.0,21.9,30.22,NW,315,1.0,315.0,81,0.00,,,-99.99,Weather View 32 v70,2013-04-01 08:24:00,
2013-04-01 02:29:00,27.0,21.9,30.22,NW,315,0.0,315.0,81,0.00,,,-99.99,Weather View 32 v70,2013-04-01 08:29:00,
2013-04-01 02:34:00,27.0,21.9,30.22,NW,315,2.0,315.0,81,0.00,,,-99.99,Weather View 32 v70,2013-04-01 08:34:00,
2013-04-01 02:39:00,27.0,21.9,30.22,NW,315,4.0,315.0,81,0.00,,,-99.99,Weather View 32 v70,2013-04-01 08:39:00,
2013-04-01 02:44:00,26.0,21.0,30.22,NW,315,0.0,315.0,81,0.00,,,-99.99,Weather View 32 v70,2013-04-01 08:44:00,
2013-04-01 02:54:00,25.0,20.6,30.22,NW,315,3.0,315.0,83,0.00,,,-99.99,Weather View 32 v70,2013-04-01 08:54:00,
2013-04-01 02:59:00,25.0,20.6,30.22,NW,315,1.0,315.0,83,0.00,,,-99.99,Weather View 32 v70,2013-04-01 08:59:00,
2013-04-01 03:04:00,25.0,21.4,30.22,NW,315,1.0,315.0,86,0.00,,,-99.99,Weather View 32 v70,2013-04-01 09:04:00,
2013-04-01 03:10:00,26.0,22.4,30.22,NNW,337,1.0,337.0,86,0.00,,,-99.99,Weather View 32 v70,2013-04-01 09:10:00,
2013-04-01 03:15:00,27.0,23.4,30.22,North,360,3.0,360.0,86,0.00,,,-99.99,Weather View 32 v70,2013-04-01 09:15:00,
2013-04-01 03:24:00,28.0,24.6,30.22,NE,45,4.0,360.0,87,0.00,,,-99.99,Weather View 32 v70,2013-04-01 09:24:00,
2013-04-01 03:29:00,28.0,25.2,30.22,East,90,7.0,360.0,89,0.00,,,-99.99,Weather View 32 v70,2013-04-01 09:29:00,
2013-04-01 03:34:00,28.0,25.4,30.22,East,90,5.0,360.0,90,0.00,,,-99.99,Weather View 32 v70,2013-04-01 09:34:00,
2013-04-01 03:39:00,29.0,26.4,30.21,ENE,67,5.0,360.0,90,0.00,,,-99.99,Weather View 32 v70,2013-04-01 09:39:00,
2013-04-01 03:44:00,29.0,26.4,30.21,ENE,67,5.0,360.0,90,0.00,,,-99.99,Weather View 32 v70,2013-04-01 09:44:00,
2013-04-01 03:49:00,29.0,26.4,30.21,ENE,67,4.0,360.0,90,0.00,,,-99.99,Weather View 32 v70,2013-04-01 09:49:00,
2013-04-01 03:54:00,29.0,26.4,30.21,ENE,67,5.0,360.0,90,0.00,,,-99.99,Weather View 32 v70,2013-04-01 09:54:00,
2013-04-01 03:59:00,29.0,26.4,30.21,ENE,67,4.0,360.0,90,0.00,,,-99.99,Weather View 32 v70,2013-04-01 09:59:00,
2013-04-01 04:04:00,28.0,25.4,30.21,ENE,67,4.0,360.0,90,0.00,,,-99.99,Weather View 32 v70,2013-04-01 10:04:00,
2013-04-01 04:09:00,28.0,25.4,30.21,East,90,6.0,360.0,90,0.00,,,-99.99,Weather View 32 v70,2013-04-01 10:09:00,
2013-04-01 04:14:00,5.0,-21.7,96.32,NNE,25,90.0,360.0,27,71.00,,,-99.99,Weather View 32 v70,2013-04-01 10:14:00,
2013-04-01 04:19:00,28.0,25.7,30.21,East,90,5.0,90.0,91,0.00,,,-99.99,Weather View 32 v70,2013-04-01 10:19:00,
2013-04-01 04:24:00,28.0,25.4,30.21,East,90,3.0,90.0,90,0.00,,,-99.99,Weather View 32 v70,2013-04-01 10:24:00,
2013-04-01 04:34:00,28.0,25.2,30.21,East,90,4.0,90.0,89,0.00,,,-99.99,Weather View 32 v70,2013-04-01 10:34:00,
2013-04-01 04:39:00,28.0,25.4,30.21,ESE,112,6.0,112.0,90,0.00,,,-99.99,Weather View 32 v70,2013-04-01 10:39:00,
2013-04-01 04:44:00,28.0,25.2,30.21,East,90,3.0,112.0,89,0.00,,,-99.99,Weather View 32 v70,2013-04-01 10:44:00,
2013-04-01 04:54:00,28.0,25.2,30.21,ESE,112,4.0,112.0,89,0.00,,,-99.99,Weather View 32 v70,2013-04-01 10:54:00,
2013-04-01 04:59:00,28.0,25.2,30.21,ESE,112,4.0,112.0,89,0.00,,,-99.99,Weather View 32 v70,2013-04-01 10:59:00,
2013-04-01 05:04:00,28.0,25.2,30.21,ESE,112,3.0,112.0,89,0.00,,,-99.99,Weather View 32 v70,2013-04-01 11:04:00,
2013-04-01 05:14:00,27.0,24.7,30.21,East,90,2.0,112.0,91,-71.00,,,-99.99,Weather View 32 v70,2013-04-01 11:14:00,
2013-04-01 05:19:00,27.0,24.7,30.21,East,90,2.0,112.0,91,0.00,,,-99.99,Weather View 32 v70,2013-04-01 11:19:00,
2013-04-01 05:29:00,26.0,23.2,30.22,East,90,1.0,112.0,89,0.00,,,-99.99,Weather View 32 v70,2013-04-01 11:29:00,
2013-04-01 05:34:00,25.0,22.0,30.22,East,90,0.0,112.0,88,0.00,,,-99.99,Weather View 32 v70,2013-04-01 11:34:00,
2013-04-01 05:39:00,25.0,22.2,30.22,East,90,1.0,112.0,89,0.00,,,-99.99,Weather View 32 v70,2013-04-01 11:39:00,
2013-04-01 05:44:00,25.0,22.2,30.22,East,90,0.0,112.0,89,0.00,,,-99.99,Weather View 32 v70,2013-04-01 11:44:00,
2013-04-01 05:49:00,25.0,22.2,30.22,East,90,0.0,112.0,89,0.00,,,-99.99,Weather View 32 v70,2013-04-01 11:49:00,
2013-04-01 05:59:00,24.0,21.8,30.22,East,90,0.0,112.0,91,0.00,,,-99.99,Weather View 32 v70,2013-04-01 11:59:00,
2013-04-01 06:04:00,24.0,22.0,30.22,East,90,0.0,112.0,92,0.00,,,-99.99,Weather View 32 v70,2013-04-01 12:04:00,
2013-04-01 06:14:00,24.0,22.5,30.23,East,90,0.0,90.0,94,0.00,,,-99.99,Weather View 32 v70,2013-04-01 12:14:00,
2013-04-01 06:19:00,24.0,22.5,30.23,East,90,0.0,90.0,94,0.00,,,-99.99,Weather View 32 v70,2013-04-01 12:19:00,
2013-04-01 06:24:00,24.0,22.5,30.23,East,90,0.0,90.0,94,0.00,,,-99.99,Weather View 32 v70,2013-04-01 12:24:00,
2013-04-01 06:34:00,24.0,22.8,30.22,East,90,0.0,90.0,95,0.00,,,-99.99,Weather View 32 v70,2013-04-01 12:34:00,
2013-04-01 06:39:00,25.0,23.5,30.22,East,90,0.0,90.0,94,0.00,,,-99.99,Weather View 32 v70,2013-04-01 12:39:00,
2013-04-01 06:44:00,7.0,-22.2,99.32,NNE,25,90.0,90.0,24,71.00,,,-99.99,Weather View 32 v70,2013-04-01 12:44:00,
2013-04-01 06:54:00,26.0,24.5,30.22,East,90,3.0,90.0,94,0.00,,,-99.99,Weather View 32 v70,2013-04-01 12:54:00,
2013-04-01 06:59:00,27.0,25.8,30.22,East,90,4.0,90.0,95,0.00,,,-99.99,Weather View 32 v70,2013-04-01 12:59:00,
2013-04-01 07:04:00,8.0,-19.8,100.00,NNE,25,90.0,90.0,26,71.00,,,-99.99,Weather View 32 v70,2013-04-01 13:04:00,
2013-04-01 07:09:00,28.0,26.2,30.22,East,90,4.0,90.0,93,0.00,,,-99.99,Weather View 32 v70,2013-04-01 13:09:00,
2013-04-01 07:14:00,28.0,25.7,30.22,East,90,4.0,90.0,91,0.00,,,-99.99,Weather View 32 v70,2013-04-01 13:14:00,
2013-04-01 07:19:00,28.0,24.9,30.22,East,90,6.0,90.0,88,0.00,,,-99.99,Weather View 32 v70,2013-04-01 13:19:00,
2013-04-01 07:24:00,28.0,24.9,30.22,ENE,67,4.0,90.0,88,0.00,,,-99.99,Weather View 32 v70,2013-04-01 13:24:00,
2013-04-01 07:29:00,28.0,24.6,30.22,ENE,67,7.0,90.0,87,0.00,,,-99.99,Weather View 32 v70,2013-04-01 13:29:00,
2013-04-01 07:34:00,28.0,24.6,30.22,ENE,67,5.0,90.0,87,0.00,,,-99.99,Weather View 32 v70,2013-04-01 13:34:00,
2013-04-01 07:39:00,8.0,-19.0,91.32,NNE,25,67.0,90.0,27,71.00,,,-99.99,Weather View 32 v70,2013-04-01 13:39:00,
2013-04-01 07:44:00,28.0,24.4,30.22,NE,45,5.0,90.0,86,-71.00,,,-99.99,Weather View 32 v70,2013-04-01 13:44:00,
2013-04-01 07:49:00,28.0,24.4,30.22,NE,45,7.0,90.0,86,0.00,,,-99.99,Weather View 32 v70,2013-04-01 13:49:00,
2013-04-01 07:54:00,28.0,24.1,30.22,ENE,67,5.0,90.0,85,0.00,,,-99.99,Weather View 32 v70,2013-04-01 13:54:00,
2013-04-01 07:59:00,28.0,24.1,30.22,ENE,67,3.0,90.0,85,0.00,,,-99.99,Weather View 32 v70,2013-04-01 13:59:00,
2013-04-01 08:09:00,29.0,25.1,30.22,ENE,67,4.0,90.0,85,0.00,,,-99.99,Weather View 32 v70,2013-04-01 14:09:00,
2013-04-01 08:14:00,29.0,25.1,30.22,East,90,6.0,90.0,85,0.00,,,-99.99,Weather View 32 v70,2013-04-01 14:14:00,
2013-04-01 08:19:00,29.0,24.8,30.22,East,90,6.0,90.0,84,0.00,,,-99.99,Weather View 32 v70,2013-04-01 14:19:00,
2013-04-01 08:24:00,29.0,24.5,30.22,East,90,5.0,90.0,83,0.00,,,-99.99,Weather View 32 v70,2013-04-01 14:24:00,
2013-04-01 08:29:00,30.0,25.5,30.21,East,90,5.0,90.0,83,0.00,,,-99.99,Weather View 32 v70,2013-04-01 14:29:00,
2013-04-01 08:34:00,30.0,25.5,30.21,East,90,5.0,112.0,83,0.00,,,-99.99,Weather View 32 v70,2013-04-01 14:34:00,
2013-04-01 08:39:00,30.0,25.2,30.21,East,90,7.0,112.0,82,-71.00,,,-99.99,Weather View 32 v70,2013-04-01 14:39:00,
2013-04-01 08:44:00,31.0,26.1,30.21,East,90,5.0,112.0,82,0.00,,,-99.99,Weather View 32 v70,2013-04-01 14:44:00,
2013-04-01 08:49:00,31.0,25.9,30.21,East,90,7.0,135.0,81,0.00,,,-99.99,Weather View 32 v70,2013-04-01 14:49:00,
2013-04-01 08:54:00,31.0,25.6,30.21,ESE,112,7.0,135.0,80,0.00,,,-99.99,Weather View 32 v70,2013-04-01 14:54:00,
2013-04-01 08:59:00,31.0,25.6,30.21,East,90,6.0,135.0,80,0.00,,,-99.99,Weather View 32 v70,2013-04-01 14:59:00,
2013-04-01 09:04:00,31.0,25.6,30.21,SE,135,6.0,135.0,80,0.00,,,-99.99,Weather View 32 v70,2013-04-01 15:04:00,
2013-04-01 09:09:00,32.0,26.2,30.20,ESE,112,4.0,135.0,79,0.00,,,-99.99,Weather View 32 v70,2013-04-01 15:09:00,
2013-04-01 09:14:00,32.0,26.2,30.20,ESE,112,7.0,135.0,79,0.00,,,-99.99,Weather View 32 v70,2013-04-01 15:14:00,
2013-04-01 09:19:00,32.0,25.9,30.20,SE,135,10.0,135.0,78,0.00,,,-99.99,Weather View 32 v70,2013-04-01 15:19:00,
2013-04-01 09:24:00,32.0,25.6,30.20,ESE,112,7.0,135.0,77,0.00,,,-99.99,Weather View 32 v70,2013-04-01 15:24:00,
2013-04-01 09:29:00,32.0,25.9,30.20,SE,135,6.0,135.0,78,0.00,,,-99.99,Weather View 32 v70,2013-04-01 15:29:00,
2013-04-01 09:34:00,33.0,26.6,30.20,East,90,3.0,157.0,77,0.00,,,-99.99,Weather View 32 v70,2013-04-01 15:34:00,
2013-04-01 09:39:00,33.0,26.6,30.20,East,90,4.0,157.0,77,0.00,,,-99.99,Weather View 32 v70,2013-04-01 15:39:00,
2013-04-01 09:44:00,34.0,26.9,30.20,ESE,112,4.0,157.0,75,0.00,,,-99.99,Weather View 32 v70,2013-04-01 15:44:00,
2013-04-01 09:49:00,34.0,26.9,30.19,East,90,6.0,157.0,75,0.00,,,-99.99,Weather View 32 v70,2013-04-01 15:49:00,
2013-04-01 09:54:00,34.0,26.6,30.19,SE,135,7.0,157.0,74,0.00,,,-99.99,Weather View 32 v70,2013-04-01 15:54:00,
2013-04-01 09:59:00,35.0,27.5,30.19,ESE,112,6.0,157.0,74,0.00,,,-99.99,Weather View 32 v70,2013-04-01 15:59:00,
2013-04-01 10:09:00,35.0,26.9,30.19,SE,135,5.0,157.0,72,0.00,,,-99.99,Weather View 32 v70,2013-04-01 16:09:00,
2013-04-01 10:19:00,35.0,26.9,30.18,SSE,157,0.0,157.0,72,0.00,,,-99.99,Weather View 32 v70,2013-04-01 16:19:00,
2013-04-01 10:24:00,36.0,27.8,30.18,SE,135,6.0,157.0,72,0.00,,,-99.99,Weather View 32 v70,2013-04-01 16:24:00,
2013-04-01 10:29:00,37.0,28.5,30.18,SSE,157,2.0,157.0,71,0.00,,,-99.99,Weather View 32 v70,2013-04-01 16:29:00,
2013-04-01 10:34:00,38.0,29.1,30.18,ESE,112,5.0,157.0,70,0.00,,,-99.99,Weather View 32 v70,2013-04-01 16:34:00,
2013-04-01 10:39:00,38.0,28.4,30.17,East,90,7.0,157.0,68,0.00,,,-99.99,Weather View 32 v70,2013-04-01 16:39:00,
2013-04-01 10:44:00,37.0,27.8,30.17,ESE,112,7.0,157.0,69,0.00,,,-99.99,Weather View 32 v70,2013-04-01 16:44:00,
2013-04-01 10:49:00,11.0,-10.2,74.32,NNE,25,157.0,157.0,37,71.00,,,-99.99,Weather View 32 v70,2013-04-01 16:49:00,
2013-04-01 10:54:00,39.0,29.7,30.17,SSE,157,7.0,180.0,69,0.00,,,-99.99,Weather View 32 v70,2013-04-01 16:54:00,
2013-04-01 10:59:00,40.0,29.5,30.16,South,180,6.0,202.0,66,0.00,,,-99.99,Weather View 32 v70,2013-04-01 16:59:00,
2013-04-01 11:04:00,41.0,29.4,30.16,East,90,0.0,202.0,63,0.00,,,-99.99,Weather View 32 v70,2013-04-01 17:04:00,
2013-04-01 11:09:00,42.0,30.3,30.15,SSE,157,0.0,202.0,63,0.00,,,-99.99,Weather View 32 v70,2013-04-01 17:09:00,
2013-04-01 11:14:00,43.0,30.0,30.15,East,90,4.0,202.0,60,0.00,,,-99.99,Weather View 32 v70,2013-04-01 17:14:00,
2013-04-01 11:19:00,42.0,29.5,30.14,ESE,112,5.0,202.0,61,0.00,,,-99.99,Weather View 32 v70,2013-04-01 17:19:00,
2013-04-01 11:24:00,42.0,30.3,30.14,SSE,157,8.0,270.0,63,0.00,,,-99.99,Weather View 32 v70,2013-04-01 17:24:00,
2013-04-01 11:29:00,42.0,30.3,30.14,SSE,157,8.0,270.0,63,0.00,,,-99.99,Weather View 32 v70,2013-04-01 17:29:00,
2013-04-01 11:34:00,43.0,30.0,30.14,NE,45,4.0,270.0,60,0.00,,,-99.99,Weather View 32 v70,2013-04-01 17:34:00,
2013-04-01 11:44:00,44.0,31.4,30.14,South,180,5.0,270.0,61,0.00,,,-99.99,Weather View 32 v70,2013-04-01 17:44:00,
2013-04-01 11:49:00,12.0,-6.2,63.32,NNE,25,90.0,270.0,43,0.00,,,-99.99,Weather View 32 v70,2013-04-01 17:49:00,
2013-04-01 11:59:00,44.0,31.4,30.13,SSE,157,11.0,270.0,61,0.00,,,-99.99,Weather View 32 v70,2013-04-01 17:59:00,
2013-04-01 12:04:00,44.0,30.2,30.13,SSW,202,0.0,270.0,58,0.00,,,-99.99,Weather View 32 v70,2013-04-01 18:04:00,
2013-04-01 12:09:00,46.0,31.6,30.13,East,90,11.0,270.0,57,0.00,,,-99.99,Weather View 32 v70,2013-04-01 18:09:00,
2013-04-01 12:14:00,46.0,31.6,30.13,SE,135,3.0,270.0,57,0.00,,,-99.99,Weather View 32 v70,2013-04-01 18:14:00,
2013-04-01 12:19:00,46.0,30.7,30.11,SE,135,8.0,270.0,55,0.00,,,-99.99,Weather View 32 v70,2013-04-01 18:19:00,
2013-04-01 12:24:00,46.0,30.3,30.11,SE,135,9.0,202.0,54,0.00,,,-99.99,Weather View 32 v70,2013-04-01 18:24:00,
2013-04-01 12:29:00,46.0,30.3,30.11,East,90,5.0,202.0,54,0.00,,,-99.99,Weather View 32 v70,2013-04-01 18:29:00,
2013-04-01 12:34:00,13.0,-3.9,58.32,NNE,25,112.0,202.0,46,71.00,,,-99.99,Weather View 32 v70,2013-04-01 18:34:00,
2013-04-01 12:39:00,46.0,29.8,30.11,SSE,157,8.0,202.0,53,0.00,,,-99.99,Weather View 32 v70,2013-04-01 18:39:00,
2013-04-01 12:49:00,46.0,30.3,30.10,SSE,157,6.0,202.0,54,-71.00,,,-99.99,Weather View 32 v70,2013-04-01 18:49:00,
2013-04-01 12:54:00,46.0,30.3,30.10,SE,135,10.0,202.0,54,0.00,,,-99.99,Weather View 32 v70,2013-04-01 18:54:00,
2013-04-01 12:59:00,47.0,30.7,30.11,East,90,5.0,202.0,53,0.00,,,-99.99,Weather View 32 v70,2013-04-01 18:59:00,
2013-04-01 13:04:00,47.0,30.7,30.11,South,180,8.0,202.0,53,0.00,,,-99.99,Weather View 32 v70,2013-04-01 19:04:00,
2013-04-01 13:09:00,47.0,30.3,30.10,ESE,112,8.0,180.0,52,0.00,,,-99.99,Weather View 32 v70,2013-04-01 19:09:00,
2013-04-01 13:14:00,47.0,30.7,30.10,SE,135,8.0,180.0,53,0.00,,,-99.99,Weather View 32 v70,2013-04-01 19:14:00,
2013-04-01 13:19:00,47.0,30.7,30.11,SE,135,15.0,180.0,53,0.00,,,-99.99,Weather View 32 v70,2013-04-01 19:19:00,
2013-04-01 13:24:00,47.0,30.3,30.11,East,90,8.0,180.0,52,0.00,,,-99.99,Weather View 32 v70,2013-04-01 19:24:00,
2013-04-01 13:29:00,47.0,30.3,30.11,East,90,8.0,180.0,52,0.00,,,-99.99,Weather View 32 v70,2013-04-01 19:29:00,
2013-04-01 13:34:00,47.0,30.3,30.11,East,90,3.0,180.0,52,-71.00,,,-99.99,Weather View 32 v70,2013-04-01 19:34:00,
2013-04-01 13:39:00,46.0,30.3,30.10,SSE,157,8.0,180.0,54,0.00,,,-99.99,Weather View 32 v70,2013-04-01 19:39:00,
2013-04-01 13:44:00,46.0,30.7,30.10,SE,135,10.0,180.0,55,0.00,,,-99.99,Weather View 32 v70,2013-04-01 19:44:00,
2013-04-01 13:49:00,46.0,30.3,30.10,SE,135,8.0,180.0,54,0.00,,,-99.99,Weather View 32 v70,2013-04-01 19:49:00,
2013-04-01 13:54:00,46.0,30.7,30.10,East,90,7.0,180.0,55,0.00,,,-99.99,Weather View 32 v70,2013-04-01 19:54:00,
2013-04-01 13:59:00,46.0,30.7,30.10,SE,135,7.0,180.0,55,0.00,,,-99.99,Weather View 32 v70,2013-04-01 19:59:00,
2013-04-01 14:04:00,47.0,31.6,30.10,ESE,112,9.0,180.0,55,0.00,,,-99.99,Weather View 32 v70,2013-04-01 20:04:00,
2013-04-01 14:09:00,47.0,31.6,30.10,SSE,157,5.0,180.0,55,0.00,,,-99.99,Weather View 32 v70,2013-04-01 20:09:00,
2013-04-01 14:14:00,15.0,-1.6,58.32,NNE,25,112.0,180.0,47,71.00,,,-99.99,Weather View 32 v70,2013-04-01 20:14:00,
2013-04-01 14:19:00,48.0,31.2,30.10,East,90,10.0,180.0,52,0.00,,,-99.99,Weather View 32 v70,2013-04-01 20:19:00,
2013-04-01 14:24:00,49.0,32.1,30.10,SE,135,4.0,180.0,52,0.00,,,-99.99,Weather View 32 v70,2013-04-01 20:24:00,
2013-04-01 14:29:00,49.0,31.6,30.08,SE,135,13.0,180.0,51,0.00,,,-99.99,Weather View 32 v70,2013-04-01 20:29:00,
2013-04-01 14:34:00,49.0,32.6,30.08,South,180,6.0,180.0,53,0.00,,,-99.99,Weather View 32 v70,2013-04-01 20:34:00,
2013-04-01 14:39:00,49.0,31.1,30.08,SE,135,8.0,180.0,50,0.00,,,-99.99,Weather View 32 v70,2013-04-01 20:39:00,
2013-04-01 14:44:00,48.0,31.2,30.08,SE,135,6.0,180.0,52,0.00,,,-99.99,Weather View 32 v70,2013-04-01 20:44:00,
2013-04-01 14:51:00,48.0,31.2,30.08,ESE,112,9.0,180.0,52,0.00,,,-99.99,Weather View 32 v70,2013-04-01 20:51:00,
2013-04-01 14:59:00,48.0,31.2,30.08,SE,135,10.0,180.0,52,0.00,,,-99.99,Weather View 32 v70,2013-04-01 20:59:00,
2013-04-01 15:04:00,49.0,32.1,30.08,East,90,7.0,180.0,52,0.00,,,-99.99,Weather View 32 v70,2013-04-01 21:04:00,
2013-04-01 15:09:00,48.0,31.2,30.08,ESE,112,8.0,180.0,52,0.00,,,-99.99,Weather View 32 v70,2013-04-01 21:09:00,
2013-04-01 15:19:00,47.0,31.6,30.09,SE,135,6.0,180.0,55,0.00,,,-99.99,Weather View 32 v70,2013-04-01 21:19:00,
2013-04-01 15:24:00,47.0,31.6,30.09,ESE,112,9.0,180.0,55,0.00,,,-99.99,Weather View 32 v70,2013-04-01 21:24:00,
2013-04-01 15:29:00,47.0,31.6,30.09,ESE,112,10.0,180.0,55,0.00,,,-99.99,Weather View 32 v70,2013-04-01 21:29:00,
2013-04-01 15:34:00,47.0,31.6,30.09,SE,135,14.0,180.0,55,0.00,,,-99.99,Weather View 32 v70,2013-04-01 21:34:00,
2013-04-01 15:39:00,47.0,31.6,30.08,SE,135,9.0,180.0,55,0.00,,,-99.99,Weather View 32 v70,2013-04-01 21:39:00,
2013-04-01 15:44:00,47.0,31.6,30.08,SSE,157,7.0,180.0,55,0.00,,,-99.99,Weather View 32 v70,2013-04-01 21:44:00,
2013-04-01 15:49:00,16.0,-1.1,59.32,NNE,25,135.0,180.0,46,71.00,,,-99.99,Weather View 32 v70,2013-04-01 21:49:00,
2013-04-01 15:54:00,48.0,32.1,30.08,SSE,157,2.0,180.0,54,0.00,,,-99.99,Weather View 32 v70,2013-04-01 21:54:00,
2013-04-01 15:59:00,48.0,31.7,30.08,SE,135,4.0,180.0,53,0.00,,,-99.99,Weather View 32 v70,2013-04-01 21:59:00,
2013-04-01 16:04:00,49.0,32.1,30.08,ESE,112,3.0,180.0,52,0.00,,,-99.99,Weather View 32 v70,2013-04-01 22:04:00,
2013-04-01 16:09:00,49.0,32.6,30.07,SSE,157,8.0,180.0,53,0.00,,,-99.99,Weather View 32 v70,2013-04-01 22:09:00,
2013-04-01 16:14:00,49.0,32.1,30.07,ESE,112,7.0,180.0,52,0.00,,,-99.99,Weather View 32 v70,2013-04-01 22:14:00,
2013-04-01 16:19:00,48.0,31.7,30.06,SSE,157,9.0,180.0,53,0.00,,,-99.99,Weather View 32 v70,2013-04-01 22:19:00,
2013-04-01 16:24:00,48.0,31.7,30.06,SE,135,7.0,180.0,53,0.00,,,-99.99,Weather View 32 v70,2013-04-01 22:24:00,
2013-04-01 16:29:00,48.0,31.7,30.07,ESE,112,6.0,180.0,53,0.00,,,-99.99,Weather View 32 v70,2013-04-01 22:29:00,
2013-04-01 16:34:00,48.0,31.7,30.07,East,90,5.0,180.0,53,0.00,,,-99.99,Weather View 32 v70,2013-04-01 22:34:00,
2013-04-01 16:39:00,48.0,31.7,30.06,ESE,112,9.0,180.0,53,0.00,,,-99.99,Weather View 32 v70,2013-04-01 22:39:00,
2013-04-01 16:44:00,48.0,31.7,30.06,SSE,157,4.0,180.0,53,0.00,,,-99.99,Weather View 32 v70,2013-04-01 22:44:00,
2013-04-01 16:49:00,48.0,31.7,30.07,SE,135,13.0,180.0,53,-71.00,,,-99.99,Weather View 32 v70,2013-04-01 22:49:00,
2013-04-01 16:54:00,48.0,31.7,30.07,SE,135,5.0,180.0,53,0.00,,,-99.99,Weather View 32 v70,2013-04-01 22:54:00,
2013-04-01 17:04:00,48.0,31.7,30.07,SE,135,8.0,180.0,53,0.00,,,-99.99,Weather View 32 v70,2013-04-01 23:04:00,
2013-04-01 17:09:00,48.0,32.1,30.07,SE,135,7.0,180.0,54,0.00,,,-99.99,Weather View 32 v70,2013-04-01 23:09:00,
2013-04-01 17:14:00,48.0,32.1,30.07,SSE,157,9.0,180.0,54,0.00,,,-99.99,Weather View 32 v70,2013-04-01 23:14:00,
2013-04-01 17:19:00,48.0,32.6,30.07,SE,135,8.0,180.0,55,0.00,,,-99.99,Weather View 32 v70,2013-04-01 23:19:00,
2013-04-01 17:24:00,48.0,32.6,30.07,SSE,157,11.0,180.0,55,0.00,,,-99.99,Weather View 32 v70,2013-04-01 23:24:00,
2013-04-01 17:29:00,48.0,32.6,30.08,SE,135,10.0,180.0,55,0.00,,,-99.99,Weather View 32 v70,2013-04-01 23:29:00,
2013-04-01 17:34:00,48.0,32.6,30.08,SE,135,7.0,180.0,55,0.00,,,-99.99,Weather View 32 v70,2013-04-01 23:34:00,
2013-04-01 17:39:00,48.0,32.6,30.08,SSE,157,6.0,180.0,55,0.00,,,-99.99,Weather View 32 v70,2013-04-01 23:39:00,
2013-04-01 17:44:00,48.0,32.6,30.08,East,90,5.0,180.0,55,0.00,,,-99.99,Weather View 32 v70,2013-04-01 23:44:00,
2013-04-01 17:53:00,48.0,32.6,30.08,East,90,5.0,180.0,55,0.00,,,-99.99,Weather View 32 v70,2013-04-01 23:53:00,
2013-04-01 17:59:00,47.0,31.6,30.08,ESE,112,10.0,180.0,55,0.00,,,-99.99,Weather View 32 v70,2013-04-01 23:59:00,
2013-04-01 18:04:00,47.0,32.1,30.08,East,90,10.0,180.0,56,0.00,,,-99.99,Weather View 32 v70,2013-04-02 00:04:00,
2013-04-01 18:09:00,47.0,32.1,30.08,East,90,8.0,180.0,56,0.00,,,-99.99,Weather View 32 v70,2013-04-02 00:09:00,
2013-04-01 18:14:00,47.0,32.1,30.08,SE,135,9.0,180.0,56,0.00,,,-99.99,Weather View 32 v70,2013-04-02 00:14:00,
2013-04-01 18:19:00,47.0,32.1,30.07,East,90,9.0,157.0,56,0.00,,,-99.99,Weather View 32 v70,2013-04-02 00:19:00,
2013-04-01 18:24:00,47.0,32.1,30.07,East,90,11.0,157.0,56,0.00,,,-99.99,Weather View 32 v70,2013-04-02 00:24:00,
2013-04-01 18:29:00,47.0,32.5,30.08,East,90,8.0,157.0,57,0.00,,,-99.99,Weather View 32 v70,2013-04-02 00:29:00,
2013-04-01 18:34:00,47.0,31.6,30.08,ESE,112,7.0,157.0,55,0.00,,,-99.99,Weather View 32 v70,2013-04-02 00:34:00,
2013-04-01 18:39:00,46.0,30.7,30.09,ESE,112,8.0,157.0,55,0.00,,,-99.99,Weather View 32 v70,2013-04-02 00:39:00,
2013-04-01 18:44:00,19.0,1.2,60.32,NNE,25,112.0,135.0,45,71.00,,,-99.99,Weather View 32 v70,2013-04-02 00:44:00,
2013-04-01 18:49:00,46.0,30.7,30.09,SE,135,12.0,135.0,55,0.00,,,-99.99,Weather View 32 v70,2013-04-02 00:49:00,
2013-04-01 18:54:00,46.0,31.2,30.09,ESE,112,10.0,135.0,56,0.00,,,-99.99,Weather View 32 v70,2013-04-02 00:54:00,
2013-04-01 18:59:00,46.0,31.2,30.09,East,90,10.0,135.0,56,0.00,,,-99.99,Weather View 32 v70,2013-04-02 00:59:00,
2013-04-01 19:09:00,45.0,30.2,30.10,East,90,13.0,135.0,56,0.00,,,-99.99,Weather View 32 v70,2013-04-02 01:09:00,
2013-04-01 19:14:00,45.0,30.2,30.10,East,90,10.0,135.0,56,0.00,,,-99.99,Weather View 32 v70,2013-04-02 01:14:00,
2013-04-01 19:19:00,45.0,30.7,30.10,ESE,112,10.0,135.0,57,0.00,,,-99.99,Weather View 32 v70,2013-04-02 01:19:00,
2013-04-01 19:24:00,44.0,29.7,30.10,ESE,112,11.0,135.0,57,0.00,,,-99.99,Weather View 32 v70,2013-04-02 01:24:00,
2013-04-01 19:29:00,44.0,30.2,30.10,East,90,11.0,135.0,58,0.00,,,-99.99,Weather View 32 v70,2013-04-02 01:29:00,
2013-04-01 19:34:00,44.0,30.6,30.10,East,90,11.0,135.0,59,0.00,,,-99.99,Weather View 32 v70,2013-04-02 01:34:00,
2013-04-01 19:39:00,44.0,31.0,30.10,East,90,8.0,135.0,60,0.00,,,-99.99,Weather View 32 v70,2013-04-02 01:39:00,
2013-04-01 19:44:00,43.0,30.0,30.10,East,90,8.0,135.0,60,-71.00,,,-99.99,Weather View 32 v70,2013-04-02 01:44:00,
2013-04-01 19:49:00,43.0,30.0,30.11,ESE,112,9.0,135.0,60,0.00,,,-99.99,Weather View 32 v70,2013-04-02 01:49:00,
2013-04-01 19:54:00,43.0,30.0,30.11,ESE,112,9.0,135.0,60,0.00,,,-99.99,Weather View 32 v70,2013-04-02 01:54:00,
2013-04-01 19:59:00,43.0,30.5,30.12,East,90,13.0,135.0,61,0.00,,,-99.99,Weather View 32 v70,2013-04-02 01:59:00,
2013-04-01 20:04:00,43.0,30.5,30.12,East,90,15.0,135.0,61,-71.00,,,-99.99,Weather View 32 v70,2013-04-02 02:04:00,
2013-04-01 20:09:00,43.0,30.9,30.12,East,90,10.0,135.0,62,0.00,,,-99.99,Weather View 32 v70,2013-04-02 02:09:00,
2013-04-01 20:14:00,42.0,30.3,30.12,ESE,112,9.0,135.0,63,0.00,,,-99.99,Weather View 32 v70,2013-04-02 02:14:00,
2013-04-01 20:19:00,42.0,30.3,30.13,ESE,112,9.0,135.0,63,0.00,,,-99.99,Weather View 32 v70,2013-04-02 02:19:00,
2013-04-01 20:24:00,42.0,30.3,30.13,ESE,112,7.0,135.0,63,0.00,,,-99.99,Weather View 32 v70,2013-04-02 02:24:00,
2013-04-01 20:29:00,42.0,30.7,30.14,East,90,9.0,135.0,64,0.00,,,-99.99,Weather View 32 v70,2013-04-02 02:29:00,
2013-04-01 20:34:00,42.0,30.7,30.14,ESE,112,12.0,135.0,64,0.00,,,-99.99,Weather View 32 v70,2013-04-02 02:34:00,
2013-04-01 20:39:00,42.0,30.7,30.14,ESE,112,10.0,135.0,64,0.00,,,-99.99,Weather View 32 v70,2013-04-02 02:39:00,
2013-04-01 20:44:00,41.0,30.1,30.14,ESE,112,12.0,135.0,65,0.00,,,-99.99,Weather View 32 v70,2013-04-02 02:44:00,
2013-04-01 20:49:00,41.0,30.1,30.15,ESE,112,8.0,135.0,65,0.00,,,-99.99,Weather View 32 v70,2013-04-02 02:49:00,
2013-04-01 20:54:00,41.0,30.5,30.15,East,90,10.0,135.0,66,0.00,,,-99.99,Weather View 32 v70,2013-04-02 02:54:00,
2013-04-01 21:04:00,41.0,30.5,30.15,East,90,8.0,135.0,66,0.00,,,-99.99,Weather View 32 v70,2013-04-02 03:04:00,
2013-04-01 21:14:00,41.0,30.9,30.14,East,90,10.0,135.0,67,0.00,,,-99.99,Weather View 32 v70,2013-04-02 03:14:00,
2013-04-01 21:19:00,40.0,29.9,30.14,East,90,9.0,135.0,67,0.00,,,-99.99,Weather View 32 v70,2013-04-02 03:19:00,
2013-04-01 21:24:00,40.0,30.3,30.14,ESE,112,11.0,135.0,68,0.00,,,-99.99,Weather View 32 v70,2013-04-02 03:24:00,
2013-04-01 21:29:00,22.0,0.8,72.32,NNE,25,135.0,135.0,39,71.00,,,-99.99,Weather View 32 v70,2013-04-02 03:29:00,
2013-04-01 21:34:00,40.0,30.3,30.15,ESE,112,5.0,135.0,68,0.00,,,-99.99,Weather View 32 v70,2013-04-02 03:34:00,
2013-04-01 21:39:00,22.0,0.8,73.32,NNE,25,112.0,135.0,39,71.00,,,-99.99,Weather View 32 v70,2013-04-02 03:39:00,
2013-04-01 21:44:00,40.0,30.3,30.16,SE,135,9.0,135.0,68,0.00,,,-99.99,Weather View 32 v70,2013-04-02 03:44:00,
2013-04-01 21:49:00,40.0,30.3,30.16,SE,135,11.0,135.0,68,0.00,,,-99.99,Weather View 32 v70,2013-04-02 03:49:00,
2013-04-01 21:54:00,39.0,30.0,30.16,SE,135,13.0,135.0,70,0.00,,,-99.99,Weather View 32 v70,2013-04-02 03:54:00,
2013-04-01 21:59:00,39.0,30.4,30.17,ESE,112,8.0,135.0,71,0.00,,,-99.99,Weather View 32 v70,2013-04-02 03:59:00,
2013-04-01 22:04:00,39.0,30.4,30.17,East,90,9.0,135.0,71,0.00,,,-99.99,Weather View 32 v70,2013-04-02 04:04:00,
2013-04-01 22:09:00,39.0,30.4,30.17,SE,135,10.0,135.0,71,0.00,,,-99.99,Weather View 32 v70,2013-04-02 04:09:00,
2013-04-01 22:19:00,39.0,30.0,30.17,ESE,112,8.0,135.0,70,0.00,,,-99.99,Weather View 32 v70,2013-04-02 04:19:00,
2013-04-01 22:24:00,39.0,30.0,30.17,ESE,112,6.0,135.0,70,0.00,,,-99.99,Weather View 32 v70,2013-04-02 04:24:00,
2013-04-01 22:29:00,39.0,30.4,30.16,East,90,9.0,135.0,71,-71.00,,,-99.99,Weather View 32 v70,2013-04-02 04:29:00,
2013-04-01 22:34:00,39.0,30.0,30.16,East,90,4.0,135.0,70,0.00,,,-99.99,Weather View 32 v70,2013-04-02 04:34:00,
2013-04-01 22:39:00,39.0,30.0,30.16,East,90,8.0,135.0,70,-71.00,,,-99.99,Weather View 32 v70,2013-04-02 04:39:00,
2013-04-01 22:44:00,39.0,30.0,30.16,East,90,5.0,135.0,70,0.00,,,-99.99,Weather View 32 v70,2013-04-02 04:44:00,
2013-04-01 22:49:00,39.0,30.0,30.16,East,90,5.0,135.0,70,0.00,,,-99.99,Weather View 32 v70,2013-04-02 04:49:00,
2013-04-01 22:54:00,39.0,30.0,30.16,East,90,7.0,135.0,70,0.00,,,-99.99,Weather View 32 v70,2013-04-02 04:54:00,
2013-04-01 22:59:00,39.0,30.0,30.16,East,90,4.0,135.0,70,0.00,,,-99.99,Weather View 32 v70,2013-04-02 04:59:00,
2013-04-01 23:04:00,39.0,30.0,30.16,East,90,6.0,135.0,70,0.00,,,-99.99,Weather View 32 v70,2013-04-02 05:04:00,
2013-04-01 23:09:00,39.0,30.0,30.15,East,90,5.0,135.0,70,0.00,,,-99.99,Weather View 32 v70,2013-04-02 05:09:00,
2013-04-01 23:14:00,39.0,30.0,30.15,ENE,67,10.0,135.0,70,0.00,,,-99.99,Weather View 32 v70,2013-04-02 05:14:00,
2013-04-01 23:19:00,24.0,2.1,75.32,NNE,25,90.0,135.0,38,71.00,,,-99.99,Weather View 32 v70,2013-04-02 05:19:00,
2013-04-01 23:24:00,39.0,30.0,30.15,East,90,5.0,135.0,70,0.00,,,-99.99,Weather View 32 v70,2013-04-02 05:24:00,
2013-04-01 23:34:00,39.0,30.4,30.15,East,90,8.0,112.0,71,0.00,,,-99.99,Weather View 32 v70,2013-04-02 05:34:00,
2013-04-01 23:39:00,38.0,29.8,30.16,East,90,6.0,112.0,72,0.00,,,-99.99,Weather View 32 v70,2013-04-02 05:39:00,
2013-04-01 23:44:00,38.0,29.8,30.16,East,90,6.0,112.0,72,0.00,,,-99.99,Weather View 32 v70,2013-04-02 05:44:00,
2013-04-01 23:49:00,24.0,1.5,77.32,NNE,25,112.0,112.0,37,71.00,,,-99.99,Weather View 32 v70,2013-04-02 05:49:00,
2013-04-01 23:54:00,38.0,29.8,30.15,East,90,7.0,112.0,72,0.00,,,-99.99,Weather View 32 v70,2013-04-02 05:54:00,
2013-04-01 23:59:00,38.0,29.8,30.15,East,90,8.0,112.0,72,0.00,,,-99.99,Weather View 32 v70,2013-04-02 05:59:00,